Location: Edinburgh
(55.9500°N, 3.1600°W)
Time: 06:54:22
(UTC+01:00)

Vanguard 1 Rocket - All Passes

Search period start: 18 October 2017 00:00
Search period end: 28 October 2017 00:00
Orbit: 655 x 4222 km, 34.3° (Epoch: 17 October)

Date Brightness Start Highest point End Pass type
(mag) Time Alt. Az. Time Alt. Az. Time Alt. Az.
26 Oct - 07:36:21 10° SSW 07:38:33 11° S 07:40:29 10° SSE daylight
27 Oct - 06:24:31 10° SSW 06:27:55 12° S 06:30:45 10° SSE visible
27 Oct - 08:51:11 10° SSW 08:51:46 10° SSW 08:52:19 10° S daylight
